This demonstration page uses our WeatherBlox Daily Observations layout. Learn more.

Left ArrowRight Arrow

Hourly Observations for February 26, 2016

Temp ( °F °C ) Dew Point ( °F °C ) Humidity (%) Winds ( mph kmh ) Pressure ( in mb ) Visibility ( mi km ) Precip ( " mm )
12:54 am 00:54 Clear 25 -3.9 19 -7.2 78 78 SSE 3 6 30.38 1029 10 16 0.00 0.00
1:54 am 01:54 Clear 23 -5 19 -7.2 85 85 S 5 7 30.37 1028 10 16 0.00 0.00
2:54 am 02:54 Clear 22 -5.6 19 -7.2 89 89 SSE 6 9 30.35 1028 10 16 0.00 0.00
3:54 am 03:54 Clear 22 -5.6 18 -7.8 85 85 SSW 5 7 30.33 1027 10 16 0.00 0.00
4:54 am 04:54 Clear 23 -5 18 -7.8 81 81 S 6 9 30.32 1027 10 16 0.00 0.00
5:54 am 05:54 Clear 24 -4.4 20 -6.7 84 84 SSE 5 7 30.30 1026 10 16 0.00 0.00
6:54 am 06:54 Mostly Cloudy 26 -3.3 21 -6.1 81 81 S 7 11 30.28 1026 10 16 0.00 0.00
7:54 am 07:54 Cloudy 29 -1.7 23 -5 78 78 S 8 13 30.27 1025 10 16 0.00 0.00
8:54 am 08:54 Mostly Cloudy 33 0.6 25 -3.9 72 72 S 10 17 30.26 1025 10 16 0.00 0.00
9:54 am 09:54 Sunny 38 3.3 23 -5 55 55 SSW 17 28 30.22 1023 10 16 0.00 0.00
10:54 am 10:54 Sunny 43 6.1 23 -5 45 45 WSW 15 24 30.21 1023 10 16 0.00 0.00
11:54 am 11:54 Sunny 45 7.2 23 -5 42 42 SW 8 13 30.19 1022 10 16 0.00 0.00
12:54 pm 12:54 Sunny 49 9.4 24 -4.4 38 38 W 9 15 30.16 1022 10 16 0.00 0.00
1:54 pm 13:54 Sunny 52 11.1 25 -3.9 35 35 W 8 13 30.14 1021 10 16 0.00 0.00
2:54 pm 14:54 Sunny 56 13.3 25 -3.9 30 30 NNW 13 20 30.13 1020 10 16 0.00 0.00
3:54 pm 15:54 Sunny 56 13.3 24 -4.4 29 29 NW 13 20 30.14 1021 10 16 0.00 0.00
4:54 pm 16:54 Sunny 56 13.3 24 -4.4 29 29 NNW 15 24 30.14 1021 10 16 0.00 0.00
5:54 pm 17:54 Sunny 51 10.6 23 -5 33 33 N 8 13 30.14 1021 10 16 0.00 0.00
6:54 pm 18:54 Clear 42 5.6 22 -5.6 45 45 NNW 3 6 30.15 1021 10 16 0.00 0.00
7:54 pm 19:54 Clear 38 3.3 24 -4.4 57 57 SW 3 6 30.15 1021 10 16 0.00 0.00
8:54 pm 20:54 Clear 36 2.2 24 -4.4 62 62 Calm 30.14 1021 10 16 0.00 0.00
9:54 pm 21:54 Clear 33 0.6 23 -5 66 66 Calm 30.13 1020 10 16 0.00 0.00
10:54 pm 22:54 Clear 33 0.6 23 -5 66 66 Calm 30.13 1020 10 16 0.00 0.00
11:54 pm 23:54 Clear 29 -1.7 22 -5.6 75 75 Calm 30.12 1020 10 16 0.00 0.00

Powered by AerisWeather